Simultaneous Nadir Overpasses (SNOs) Predictions

Prediction of SNOs between METOP-C and LANDSAT-8 Satellite Orbit:

Table of predicted SNOs for the next 14.0 days since TLE Epoch: 4/8/2023
Index Date (METOP-C) Time (METOP-C) Lat,Lon (METOP-C) SZA (METOP-C ) Date (LANDSAT-8) Time (LANDSAT-8) Lat,Lon (LANDSAT-8) SZA (LANDSAT-8 ) Distance(km) Time Diff (sec)
1 04/10/2023 20:22:35 81.09, -87.10 74.93 04/10/2023 20:23:33 81.09, -87.02 74.96 1.36 58
2 04/10/2023 21:13:13 -81.13, 81.25 104.96 04/10/2023 21:12:58 -81.13, 81.27 104.96 0.69 15
3 04/13/2023 15:56:56 81.11, -20.10 74.00 04/13/2023 15:57:41 81.12, -20.18 74.01 1.50 45
4 04/13/2023 16:47:35 -81.14, 147.84 105.94 04/13/2023 16:47:07 -81.14, 147.76 105.96 1.33 28
5 04/16/2023 11:31:20 81.11, 46.06 72.98 04/16/2023 11:31:51 81.10, 46.06 72.99 0.26 31
6 04/16/2023 12:21:59 -81.13,-146.03 106.97 04/16/2023 12:21:17 -81.12,-145.97 106.98 1.00 42
7 04/19/2023 07:05:42 81.12, 112.89 72.07 04/19/2023 07:05:59 81.12, 112.81 72.07 1.47 17
8 04/19/2023 07:56:21 -81.14, -79.23 107.88 04/19/2023 07:55:25 -81.14, -79.21 107.90 0.70 56
9 04/22/2023 02:40:04 81.12, 179.26 71.12 04/22/2023 02:40:06 81.13, 179.33 71.13 1.41 2



Historial Predications of SNOs between METOP-C and LANDSAT-8
